| time (UTC) | temp F | wind direction | speed MPH | gust MPH | rain 1hr in | rain 24hr in | rain mn in | humidity % | barometer mb |
| 20260905004603 | 77 | 264 | 0.0 | 0.0 | 0.00 | 0.11 | 0.11 | 1 | 1013.2 |
| 20260905003040 | 78 | 264 | 0.0 | 0.0 | 0.00 | 0.11 | 0.11 | 1 | 1013.2 |
| 20260905001548 | 79 | 264 | 0.0 | 0.0 | 0.00 | 0.11 | 0.11 | 1 | 1013.3 |
| 20260905000032 | 80 | 135 | 0.0 | 0.0 | 0.00 | 0.11 | 0.11 | 1 | 1013.2 |
| 20260904234534 | 82 | 122 | 0.0 | 0.0 | 0.00 | 0.11 | 0.11 | 6 | 1013.3 |
| 20260904233038 | 83 | 121 | 0.0 | 0.0 | 0.00 | 0.11 | 0.11 | 12 | 1013.1 |
| 20260904231524 | 85 | 132 | 0.0 | 0.0 | 0.00 | 0.11 | 0.11 | 26 | 1013.0 |
| 20260904230015 | 86 | 119 | 0.0 | 0.0 | 0.00 | 0.11 | 0.11 | 27 | 1013.0 |
| 20260904224509 | 86 | 119 | 0.0 | 0.0 | 0.00 | 0.11 | 0.11 | 40 | 1012.9 |
| 20260904223005 | 85 | 119 | 0.0 | 0.0 | 0.01 | 0.11 | 0.11 | 39 | 1012.9 |
| 20260904221502 | 85 | 110 | 0.0 | 0.0 | 0.03 | 0.11 | 0.11 | 36 | 1012.9 |
| 20260904220057 | 83 | 110 | 0.0 | 0.0 | 0.05 | 0.11 | 0.11 | 32 | 1013.0 |
| 20260904214553 | 82 | 114 | 0.0 | 0.0 | 0.07 | 0.11 | 0.11 | 30 | 1013.1 |
| 20260904213048 | 81 | 115 | 0.0 | 0.0 | 0.08 | 0.10 | 0.10 | 23 | 1013.2 |
| 20260904211543 | 81 | 117 | 0.0 | 0.0 | 0.07 | 0.08 | 0.08 | 24 | 1013.5 |
| 20260904210054 | 80 | 147 | 0.0 | 0.0 | 0.05 | 0.06 | 0.06 | 42 | 1013.5 |
| 20260904204535 | 82 | 111 | 0.0 | 0.0 | 0.03 | 0.04 | 0.04 | 52 | 1014.0 |
| 20260904203035 | 88 | 263 | 0.0 | 0.0 | 0.01 | 0.02 | 0.02 | 64 | 1014.2 |
| 20260904201526 | 95 | 103 | 0.0 | 0.0 | 0.00 | 0.01 | 0.01 | 51 | 1013.2 |
| 20260904200022 | 97 | 251 | 0.0 | 0.0 | 0.00 | 0.01 | 0.01 | 49 | 1013.2 |
| 20260904194517 | 98 | 325 | 0.0 | 0.0 | 0.00 | 0.01 | 0.01 | 48 | 1013.3 |
| 20260904193011 | 97 | 274 | 0.0 | 0.0 | 0.01 | 0.01 | 0.01 | 48 | 1013.7 |
| 20260904191507 | 94 | 344 | 0.0 | 0.0 | 0.01 | 0.01 | 0.01 | 55 | 1013.8 |
| 20260904190003 | 92 | 282 | 0.0 | 0.0 | 0.01 | 0.01 | 0.01 | 62 | 1014.2 |
| 20260904184559 | 93 | 147 | 0.0 | 0.0 | 0.01 | 0.01 | 0.01 | 57 | 1014.2 |
| 20260904183054 | 98 | 317 | 0.0 | 0.0 | 0.00 | 0.00 | 0.00 | 50 | 1014.5 |
| 20260904181550 | 97 | 286 | 0.0 | 0.0 | 0.00 | 0.00 | 0.00 | 47 | 1014.4 |
| 20260904180049 | 97 | 280 | 0.0 | 0.0 | 0.00 | 0.00 | 0.00 | 47 | 1014.5 |
| 20260904174645 | 99 | 248 | 0.0 | 0.0 | 0.00 | 0.00 | 0.00 | 44 | 1014.6 |
| 20260904173049 | 98 | 299 | 0.0 | 0.0 | 0.00 | 0.00 | 0.00 | 46 | 1014.7 |
| 20260904170029 | 96 | 170 | 0.0 | 0.0 | 0.00 | 0.00 | 0.00 | 53 | 1015.1 |
| 20260904164525 | 96 | 209 | 0.0 | 0.0 | 0.00 | 0.00 | 0.00 | 51 | 1015.2 |
| 20260904163021 | 96 | 102 | 0.0 | 0.0 | 0.00 | 0.00 | 0.00 | 50 | 1015.4 |
| 20260904161517 | 94 | 13 | 0.0 | 0.0 | 0.00 | 0.00 | 0.00 | 53 | 1015.5 |
| 20260904160012 | 94 | 315 | 0.0 | 0.0 | 0.00 | 0.00 | 0.00 | 55 | 1015.6 |
| 20260904154507 | 93 | 297 | 0.0 | 0.0 | 0.00 | 0.00 | 0.00 | 60 | 1015.7 |
| 20260904153005 | 92 | 355 | 0.0 | 0.0 | 0.00 | 0.00 | 0.00 | 59 | 1015.8 |
| 20260904151604 | 91 | 330 | 0.0 | 0.0 | 0.00 | 0.00 | 0.00 | 60 | 1016.0 |
| 20260904150056 | 90 | 115 | 0.0 | 0.0 | 0.00 | 0.00 | 0.00 | 62 | 1016.0 |
| 20260904144607 | 89 | 355 | 0.0 | 0.0 | 0.00 | 0.00 | 0.00 | 62 | 1016.0 |
| 20260904143056 | 88 | 346 | 0.0 | 0.0 | 0.00 | 0.00 | 0.00 | 61 | 1015.9 |
| 20260904141541 | 87 | 5 | 0.0 | 0.0 | 0.00 | 0.00 | 0.00 | 59 | 1016.0 |
| 20260904140039 | 85 | 223 | 0.0 | 0.0 | 0.00 | 0.00 | 0.00 | 46 | 1016.0 |
| 20260904134534 | 81 | 223 | 0.0 | 0.0 | 0.00 | 0.00 | 0.00 | 18 | 1016.0 |
| 20260904133029 | 78 | 223 | 0.0 | 0.0 | 0.00 | 0.00 | 0.00 | 1 | 1015.9 |
| 20260904131527 | 78 | 223 | 0.0 | 0.0 | 0.00 | 0.00 | 0.00 | 1 | 1016.0 |
| 20260904130021 | 76 | 223 | 0.0 | 0.0 | 0.00 | 0.00 | 0.00 | 1 | 1016.1 |
| 20260904124515 | 75 | 223 | 0.0 | 0.0 | 0.00 | 0.00 | 0.00 | 1 | 1016.1 |
| 20260904123011 | 73 | 223 | 0.0 | 0.0 | 0.00 | 0.00 | 0.00 | 1 | 1015.8 |
| 20260904121507 | 72 | 223 | 0.0 | 0.0 | 0.00 | 0.00 | 0.00 | 1 | 1015.7 |
| 20260904120003 | 70 | 138 | 0.0 | 0.0 | 0.00 | 0.00 | 0.00 | 1 | 1015.5 |
| 20260904114559 | 70 | 138 | 0.0 | 0.0 | 0.00 | 0.00 | 0.00 | 1 | 1015.3 |
| 20260904113054 | 70 | 138 | 0.0 | 0.0 | 0.00 | 0.00 | 0.00 | 1 | 1015.3 |
| 20260904111550 | 70 | 138 | 0.0 | 0.0 | 0.00 | 0.00 | 0.00 | 1 | 1015.2 |
| 20260904110046 | 70 | 138 | 0.0 | 0.0 | 0.00 | 0.00 | 0.00 | 1 | 1015.1 |
| 20260904104542 | 70 | 138 | 0.0 | 0.0 | 0.00 | 0.00 | 0.00 | 1 | 1014.9 |
| 20260904103037 | 70 | 138 | 0.0 | 0.0 | 0.00 | 0.00 | 0.00 | 1 | 1015.0 |
| 20260904101532 | 70 | 138 | 0.0 | 0.0 | 0.00 | 0.00 | 0.00 | 1 | 1014.8 |
| 20260904100028 | 71 | 138 | 0.0 | 0.0 | 0.00 | 0.00 | 0.00 | 1 | 1014.7 |
| 20260904094524 | 71 | 138 | 0.0 | 0.0 | 0.00 | 0.00 | 0.00 | 1 | 1014.8 |
| 20260904093021 | 71 | 138 | 0.0 | 0.0 | 0.00 | 0.00 | 0.00 | 1 | 1014.7 |
| 20260904091529 | 71 | 138 | 0.0 | 0.0 | 0.00 | 0.00 | 0.00 | 1 | 1014.6 |
| 20260904090015 | 71 | 138 | 0.0 | 0.0 | 0.00 | 0.00 | 0.00 | 1 | 1014.6 |
| 20260904084506 | 71 | 138 | 0.0 | 0.0 | 0.00 | 0.00 | 0.00 | 1 | 1014.5 |
| 20260904083003 | 71 | 138 | 0.0 | 0.0 | 0.00 | 0.00 | 0.00 | 1 | 1014.6 |
| 20260904081559 | 71 | 138 | 0.0 | 0.0 | 0.00 | 0.00 | 0.00 | 1 | 1014.6 |
| 20260904080053 | 72 | 138 | 0.0 | 0.0 | 0.00 | 0.00 | 0.00 | 1 | 1014.5 |
| 20260904074600 | 72 | 138 | 0.0 | 0.0 | 0.00 | 0.00 | 0.00 | 1 | 1014.4 |
| 20260904073044 | 72 | 138 | 0.0 | 0.0 | 0.00 | 0.00 | 0.00 | 1 | 1014.5 |
| 20260904071558 | 72 | 138 | 0.0 | 0.0 | 0.00 | 0.00 | 0.00 | 1 | 1014.5 |
| 20260904070035 | 72 | 138 | 0.0 | 0.0 | 0.00 | 0.00 | 0.00 | 1 | 1014.6 |
| 20260904064534 | 72 | 138 | 0.0 | 0.0 | 0.00 | 0.00 | 0.00 | 1 | 1014.6 |
| 20260904063037 | 72 | 138 | 0.0 | 0.0 | 0.00 | 0.00 | 0.00 | 1 | 1014.7 |
| 20260904061522 | 73 | 138 | 0.0 | 0.0 | 0.00 | 0.00 | 0.00 | 1 | 1014.7 |
| 20260904060017 | 73 | 138 | 0.0 | 0.0 | 0.00 | 0.00 | 0.00 | 1 | 1014.8 |
| 20260904054513 | 73 | 138 | 0.0 | 0.0 | 0.00 | 0.00 | 0.00 | 1 | 1014.9 |
| 20260904053009 | 73 | 138 | 0.0 | 0.0 | 0.00 | 0.00 | 0.00 | 1 | 1015.0 |
| 20260904051507 | 74 | 138 | 0.0 | 0.0 | 0.00 | 0.00 | 0.00 | 1 | 1015.2 |
| 20260904050104 | 74 | 138 | 0.0 | 0.0 | 0.00 | 0.00 | 0.00 | 1 | 1015.3 |
| 20260904044607 | 74 | 138 | 0.0 | 0.0 | 0.00 | 0.00 | 0.00 | 1 | 1015.4 |
| 20260904043052 | 74 | 138 | 0.0 | 0.0 | 0.00 | 0.00 | 0.00 | 1 | 1015.5 |
| 20260904041547 | 74 | 138 | 0.0 | 0.0 | 0.00 | 0.00 | 0.00 | 1 | 1015.5 |
| 20260904040043 | 74 | 138 | 0.0 | 0.0 | 0.00 | 0.00 | 0.00 | 1 | 1015.4 |
| 20260904034538 | 75 | 138 | 0.0 | 0.0 | 0.00 | 0.00 | 0.00 | 1 | 1015.4 |
| 20260904033036 | 75 | 138 | 0.0 | 0.0 | 0.00 | 0.00 | 0.00 | 1 | 1015.6 |
| 20260904031529 | 75 | 138 | 0.0 | 0.0 | 0.00 | 0.00 | 0.00 | 1 | 1015.5 |
| 20260904030034 | 75 | 138 | 0.0 | 0.0 | 0.00 | 0.00 | 0.00 | 1 | 1015.5 |
| 20260904024522 | 76 | 138 | 0.0 | 0.0 | 0.00 | 0.00 | 0.00 | 1 | 1015.5 |
| 20260904023016 | 76 | 138 | 0.0 | 0.0 | 0.00 | 0.00 | 0.00 | 1 | 1015.5 |
| 20260904021529 | 76 | 138 | 0.0 | 0.0 | 0.00 | 0.00 | 0.00 | 1 | 1015.4 |
| 20260904020007 | 77 | 138 | 0.0 | 0.0 | 0.00 | 0.00 | 0.00 | 1 | 1015.3 |
| 20260904014503 | 78 | 138 | 0.0 | 0.0 | 0.00 | 0.00 | 0.00 | 1 | 1015.2 |
| 20260904013059 | 78 | 138 | 0.0 | 0.0 | 0.00 | 0.00 | 0.00 | 1 | 1015.0 |
| 20260904011555 | 79 | 138 | 0.0 | 0.0 | 0.00 | 0.00 | 0.00 | 2 | 1014.7 |
| 20260904010052 | 80 | 138 | 0.0 | 0.0 | 0.00 | 0.00 | 0.00 | 14 | 1014.6 |